Regional Weather Roundup
Issued by NWS

Home | Current Version | Previous Version | Text Only | Print | Product List | Glossary Off
Versions: 1 2 3 4 5 6 7 8 9 10 11 12 13 14 15 16 17 18 19 20 21 22 23 24 25 26 27 28 29 30 31 32 33 34 35 36 37 38 39 40 41 42 43 44 45 46 47 48 49 50

000
ASUS45 KCYS 030010
RWRWY

WYOMING REGIONAL WEATHER ROUNDUP
NATIONAL WEATHER SERVICE CHEYENNE WY
600 PM MDT THU JUL 02 2015

NOTE:  "FAIR" INDICATES FEW OR NO CLOUDS BELOW 12,000 FEET
WITH NO SIGNIFICANT WEATHER AND/OR OBSTRUCTIONS TO VISIBILITY.

WYZ001-030100-
YELLOWSTONE NATIONAL PARK

CITY           SKY/WX    TMP DP  RH WIND       PRES   REMARKS
LK YELLOWSTONE   N/A     77  35  21 CALM      30.31F
6HR MIN TEMP:  68; 6HR MAX TEMP:  78;

W YELLOWSTONE  NOT AVBL

$$
WYZ002>013-054>058-071-098>099-030100-
NORTHERN WYOMING

CITY           SKY/WX    TMP DP  RH WIND       PRES   REMARKS
JACKSON        FAIR      84  28  13 W13G20    30.17F
CODY           FAIR      81  48  32 N14       30.15F
GREYBULL       FAIR      89  48  24 NW15G23   30.03F
6HR MIN TEMP:  82; 6HR MAX TEMP:  91;

WORLAND        FAIR      88  44  21 CALM      30.05F
6HR MIN TEMP:  78; 6HR MAX TEMP:  90;

SHERIDAN       FAIR      83  52  34 VRB5      30.12S
6HR MIN TEMP:  78; 6HR MAX TEMP:  85;

BUFFALO        PTSUNNY   75  55  49 N9        30.18F
6HR MIN TEMP:  72; 6HR MAX TEMP:  78;

GILLETTE       FAIR      77  54  44 N14       30.13F
6HR MIN TEMP:  74; 6HR MAX TEMP:  79;

HULETT         FAIR      75  52  43 NW9       30.14F
NEWCASTLE      FAIR      77  46  33 N14       30.13S

$$
WYZ014>020-022>026-101>103-030100-
CENTRAL WYOMING

CITY           SKY/WX    TMP DP  RH WIND       PRES   REMARKS
BIG PINEY      FAIR      86  31  13 NW7G18    30.20F
6HR MIN TEMP:  78; 6HR MAX TEMP:  88; 6HR PCP: TRACE;

PINEDALE       FAIR      82  34  17 NW13G18   30.21F
DUBOIS         FAIR      75  46  35 SE18      30.24S
LANDER         FAIR      83  50  31 VRB7      30.13F
6HR MIN TEMP:  76; 6HR MAX TEMP:  85;

RIVERTON       FAIR      84  48  28 N12       30.14F
6HR MIN TEMP:  76; 6HR MAX TEMP:  86;

CASPER         FAIR      81  50  33 NE20G28   30.14S
6HR MIN TEMP:  77; 6HR MAX TEMP:  86;

DOUGLAS        FAIR      80  54  40 NE12      30.15F
6HR MIN TEMP:  78; 6HR MAX TEMP:  82;


$$
WYZ021-027>030-104>119-030100-
SOUTHERN WYOMING

CITY           SKY/WX    TMP DP  RH WIND       PRES   REMARKS
EVANSTON       FAIR      87  40  19 W10       30.22F
6HR MIN TEMP:  82; 6HR MAX TEMP:  89;

KEMMERER       FAIR      86  32  14 NW14G22   30.23F
FORT BRIDGER   PTCLDY    90  32  12 W13       30.22F
ROCK SPRINGS   FAIR      80  47  31 NE22G30   30.17S
6HR MIN TEMP:  77; 6HR MAX TEMP:  87;

DIXON          FAIR      87  40  19 CALM      30.17F
RAWLINS        FAIR      77  49  37 CALM      30.20F
6HR MIN TEMP:  73; 6HR MAX TEMP:  82;

SARATOGA       FAIR      77  45  31 N5        30.23S
LARAMIE        FAIR      72  54  53 E14       30.27F
6HR MIN TEMP:  64; 6HR MAX TEMP:  81; 6HR PCP:  0.03;

CHEYENNE       FAIR      78  51  38 NE7       30.21S
6HR MIN TEMP:  74; 6HR MAX TEMP:  80;

TORRINGTON     CLOUDY    83  55  38 NE17      30.08F
6HR MIN TEMP:  80; 6HR MAX TEMP:  84;

PINE BLUFFS    FAIR      79  50  36 NE12      30.16S

$$


USA.gov is the U.S. government's official web portal to all federal, state and local government web resources and services.